Weather observations for the past three days for
Preston, Fillmore County Airport
Imperial (Metric)
Date Time (cdt) Wind (mph) Vis. (mi.) Weather Sky Cond. Temperature (ºF) Relative Humidity Wind Chill (°F) Heat Index (°F) Pressure Precipitation (in)
Air Dwpt 6 hour altimeter (in) sea level (mb) 1 hr 3 hr 6 hr
Max. Min.
10 16:35 NW 14 G 26 10.00 Fair CLR 62.6 28.4 27% 30.07 0.0
10 16:15 NW 14 G 22 10.00 Fair CLR 60.8 26.6 27% 30.08 0.0
10 15:55 NW 15 G 23 10.00 Partly Cloudy SCT080 62.6 26.6 25% 30.07 0.0
10 15:35 NW 17 G 26 10.00 Partly Cloudy SCT080 60.8 28.4 29% 30.07 0.0
10 15:15 N 16 G 29 10.00 Fair CLR 62.6 26.6 25% 30.07 0.0
10 14:55 NW 20 G 25 10.00 Partly Cloudy FEW080 SCT090 60.8 26.6 27% 30.08 0.0
10 14:35 NW 21 10.00 A Few Clouds and Breezy FEW080 62.6 26.6 25% 30.08 0.0
10 14:15 W 18 G 25 10.00 Partly Cloudy SCT075 62.6 28.4 27% 30.08 0.0
10 13:55 NW 22 G 29 10.00 Partly Cloudy and Breezy FEW075 SCT085 62.6 26.6 25% 30.08 0.0
10 13:35 NW 14 G 30 10.00 Partly Cloudy SCT085 60.8 26.6 27% 30.09 0.0
10 13:15 N 16 G 24 10.00 A Few Clouds FEW080 60.8 26.6 27% 30.1 0.0
10 12:55 NW 17 G 28 10.00 Partly Cloudy SCT090 60.8 26.6 27% 30.1 0.0
10 12:35 NW 15 G 26 10.00 Mostly Cloudy FEW070 BKN090 59 26.6 29% 30.1 0.0
10 12:15 N 14 G 20 10.00 Mostly Cloudy FEW070 BKN090 59 26.6 29% 30.1 0.0
10 11:55 W 18 10.00 Partly Cloudy FEW070 SCT090 59 28.4 31% 30.1 0.0
10 11:35 W 16 G 23 10.00 Partly Cloudy SCT090 57.2 26.6 31% 30.1 0.0
10 11:15 NW 17 G 26 10.00 Partly Cloudy SCT090 57.2 26.6 31% 30.1 0.0
10 10:55 NW 17 G 24 10.00 A Few Clouds FEW090 57.2 26.6 31% 30.1 0.0
10 10:35 W 16 G 23 10.00 A Few Clouds FEW090 55.4 26.6 33% 30.1 0.0
10 10:15 NW 15 G 23 10.00 Fair CLR 55.4 26.6 33% 30.1 0.0
10 09:55 NW 14 G 22 10.00 A Few Clouds FEW090 55.4 26.6 33% 30.09 0.0
10 09:35 NW 16 G 25 10.00 A Few Clouds FEW090 55.4 24.8 31% 30.09 0.0
10 09:15 W 13 G 18 10.00 Partly Cloudy SCT090 55.4 28.4 36% 30.09 0.0
10 08:55 W 13 10.00 Mostly Cloudy BKN095 51.8 28.4 41% 30.09 0.0
10 08:35 W 8 10.00 Mostly Cloudy BKN095 50 28.4 43% 47 30.09 0.0
10 08:15 W 7 10.00 A Few Clouds FEW085 50 28.4 43% 48 30.08 0.0
10 07:55 W 6 10.00 Fair CLR 46.4 28.4 50% 44 30.08 0.0
10 07:35 W 8 10.00 Fair CLR 44.6 28.4 53% 41 30.08 0.0
10 07:15 W 7 10.00 Fair CLR 44.6 28.4 53% 41 30.07 0.0
10 06:55 W 6 10.00 Fair CLR 41 28.4 61% 38 30.07 0.0
10 06:35 W 8 10.00 Fair CLR 39.2 26.6 61% 34 30.07 0.0
10 06:15 W 9 10.00 Fair CLR 39.2 26.6 61% 34 30.07 0.0
10 05:55 W 7 10.00 Fair CLR 39.2 24.8 56% 35 30.06 0.0
10 05:35 W 8 10.00 Fair CLR 39.2 24.8 56% 34 30.06 0.0
10 05:15 W 7 10.00 Fair CLR 39.2 24.8 56% 35 30.05 0.0
10 04:55 W 7 10.00 Fair CLR 37.4 24.8 60% 33 30.04 0.0
10 04:35 W 7 10.00 Fair CLR 39.2 24.8 56% 35 30.03 0.0
10 04:15 W 6 10.00 Fair CLR 39.2 24.8 56% 36 30.03 0.0
10 03:55 W 7 10.00 Fair CLR 39.2 26.6 61% 35 30.02 0.0
10 03:35 W 9 10.00 Fair CLR 41 26.6 57% 36 30.02 0.0
10 03:15 NW 7 10.00 Fair CLR 41 26.6 57% 37 30.01 0.0
10 02:55 NW 8 10.00 Fair CLR 41 26.6 57% 36 30 0.0
10 02:35 NW 7 10.00 Fair CLR 41 24.8 53% 37 30 0.0
10 02:15 NW 8 10.00 Fair CLR 41 26.6 57% 36 30 0.0
10 01:55 NW 9 10.00 Fair CLR 42.8 24.8 49% 38 30 0.0
10 01:35 NW 9 10.00 A Few Clouds FEW075 41 24.8 53% 36 29.99 0.0
10 01:15 NW 9 10.00 A Few Clouds FEW075 41 24.8 53% 36 29.99 0.0
10 00:55 NW 6 10.00 Fair CLR 42.8 24.8 49% 40 29.98 0.0
10 00:35 NW 5 10.00 Fair CLR 42.8 24.8 49% 41 29.98 0.0
10 00:15 N 5 10.00 Fair CLR 42.8 24.8 49% 41 29.97 0.0
09 23:55 NW 5 10.00 Fair CLR 42.8 24.8 49% 41 29.96 0.0
09 23:35 NW 7 10.00 Fair CLR 44.6 24.8 46% 41 29.96 0.0
09 23:15 NW 5 10.00 Fair CLR 44.6 23 43% 43 29.95 0.0
09 22:55 NW 6 10.00 Fair CLR 44.6 24.8 46% 42 29.94 0.0
09 22:35 NW 5 10.00 Fair CLR 44.6 24.8 46% 43 29.94 0.0
09 22:15 NW 7 10.00 Fair CLR 48.2 23 37% 46 29.94 0.0
09 21:55 NW 6 10.00 Fair CLR 48.2 23 37% 46 29.93 0.0
09 21:35 NW 7 10.00 Fair CLR 48.2 23 37% 46 29.92 0.0
09 21:15 NW 8 10.00 Fair CLR 50 23 35% 47 29.9 0.0
09 20:55 N 8 10.00 Fair CLR 51.8 21.2 30% 29.89 0.0
09 20:35 NW 8 10.00 Fair CLR 51.8 21.2 30% 29.88 0.0
09 20:15 N 8 10.00 Fair CLR 53.6 21.2 28% 29.87 0.0
09 19:55 N 10 G 17 10.00 Fair CLR 55.4 21.2 26% 29.86 0.0
09 19:35 N 12 G 17 10.00 Fair CLR 57.2 21.2 25% 29.85 0.0
09 19:15 N 14 G 21 10.00 Fair CLR 59 19.4 21% 29.84 0.0
09 18:55 NW 18 G 28 10.00 Fair CLR 59 21.2 23% 29.83 0.0
09 18:35 NW 15 G 24 10.00 Fair CLR 59 21.2 23% 29.83 0.0
09 18:15 N 16 10.00 Fair CLR 60.8 23 23% 29.82 0.0
09 17:55 N 16 G 23 10.00 Fair CLR 60.8 23 23% 29.81 0.0
09 17:35 NW 16 G 24 10.00 Fair CLR 60.8 21.2 22% 29.8 0.0
09 17:15 NW 17 G 29 10.00 Fair CLR 60.8 23 23% 29.79 0.0
09 16:55 N 16 G 26 10.00 Fair CLR 60.8 23 23% 29.79 0.0
09 16:35 N 15 10.00 Fair CLR 60.8 24.8 25% 29.78 0.0
09 16:15 N 15 G 29 10.00 Fair CLR 60.8 24.8 25% 29.77 0.0
09 15:55 NW 23 10.00 Fair and Breezy CLR 62.6 24.8 24% 29.77 0.0
09 15:35 NW 15 G 26 10.00 Fair CLR 60.8 24.8 25% 29.77 0.0
09 15:15 NW 21 G 32 10.00 Fair and Breezy CLR 62.6 24.8 24% 29.76 0.0
09 14:55 N 20 G 26 10.00 Fair CLR 62.6 26.6 25% 29.75 0.0
09 14:35 NW 20 G 30 10.00 Fair CLR 60.8 28.4 29% 29.75 0.0
09 14:15 NW 18 G 30 10.00 Fair CLR 60.8 28.4 29% 29.75 0.0
09 13:55 N 20 G 30 10.00 Fair CLR 60.8 30.2 31% 29.74 0.0
09 13:35 NW 18 G 31 10.00 Fair CLR 60.8 30.2 31% 29.74 0.0
09 13:15 N 21 G 30 10.00 A Few Clouds and Breezy FEW055 60.8 32 34% 29.73 0.0
09 12:55 NW 17 G 29 10.00 A Few Clouds FEW050 FEW055 59 33.8 39% 29.73 0.0
09 12:35 NW 17 G 24 10.00 Partly Cloudy FEW050 SCT055 59 35.6 42% 29.73 0.0
09 12:15 N 23 G 31 10.00 Partly Cloudy and Breezy SCT049 59 35.6 42% 29.72 0.0
09 11:55 NW 21 G 28 10.00 Partly Cloudy and Breezy SCT047 SCT050 59 37.4 45% 29.72 0.0
09 11:35 NW 20 G 32 10.00 Partly Cloudy SCT041 BKN048 SCT055 59 37.4 45% 29.72 0.0
09 11:15 NW 17 G 25 10.00 Mostly Cloudy SCT040 BKN050 59 41 51% 29.72 0.0
09 10:55 NW 21 G 28 10.00 Partly Cloudy and Breezy SCT041 SCT049 59 39.2 48% 29.7 0.0
09 10:35 NW 22 G 31 10.00 Mostly Cloudy and Breezy SCT035 BKN042 57.2 39.2 51% 29.69 0.0
09 10:15 NW 21 G 28 10.00 Mostly Cloudy and Breezy SCT035 BKN043 59 41 51% 29.69 0.0
09 09:55 NW 20 G 26 10.00 Partly Cloudy SCT036 SCT043 59 42.8 55% 29.68 0.0
09 09:35 NW 20 10.00 Mostly Cloudy FEW035 SCT075 BKN080 57.2 41 55% 29.67 0.0
09 09:15 NW 17 10.00 Overcast SCT070 BKN080 OVC090 55.4 39.2 55% 29.67 0.0
09 08:55 NW 14 10.00 Overcast BKN065 OVC080 53.6 35.6 51% 29.66 0.0
09 08:35 W 12 10.00 Mostly Cloudy SCT075 BKN095 53.6 33.8 47% 29.67 0.0
09 08:15 W 9 10.00 Partly Cloudy SCT095 51.8 32 47% 29.66 0.0
09 07:55 NW 9 10.00 A Few Clouds FEW090 51.8 32 47% 29.66 0.0
09 07:35 W 9 G 15 10.00 A Few Clouds FEW080 FEW095 50 32 50% 47 29.64 0.0
09 07:15 W 10 10.00 A Few Clouds FEW070 FEW095 50 32 50% 46 29.65 0.0
09 06:55 NW 9 G 20 10.00 Partly Cloudy SCT095 50 32 50% 47 29.65 0.0
09 06:35 NW 13 G 21 10.00 Partly Cloudy SCT100 50 32 50% 46 29.64 0.0
09 06:15 SW 7 10.00 Mostly Cloudy BKN100 48.2 30.2 50% 46 29.6 0.0
09 05:55 SW 9 10.00 Fair CLR 48.2 30.2 50% 45 29.59 0.0
09 05:35 SW 12 10.00 A Few Clouds FEW120 50 30.2 47% 46 29.6 0.0
09 05:15 SW 10 10.00 Fair CLR 48.2 28.4 46% 44 29.6 0.0
09 04:55 W 7 10.00 Fair CLR 50 28.4 43% 48 29.6 0.0
09 04:35 SW 7 10.00 Fair CLR 48.2 28.4 46% 46 29.61 0.0
09 04:15 SW 8 10.00 Fair CLR 50 28.4 43% 47 29.61 0.0
09 03:55 SW 8 10.00 Fair CLR 48.2 28.4 46% 45 29.61 0.0
09 03:35 SW 6 10.00 Fair CLR 48.2 28.4 46% 46 29.61 0.0
09 03:15 SW 10 10.00 Fair CLR 48.2 30.2 50% 44 29.61 0.0
09 02:55 SW 7 10.00 Fair CLR 50 28.4 43% 48 29.61 0.0
09 02:35 W 7 10.00 Fair CLR 51.8 28.4 41% 29.61 0.0
09 02:15 W 8 10.00 Fair CLR 51.8 30.2 44% 29.62 0.0
09 01:55 W 9 10.00 Fair CLR 51.8 30.2 44% 29.62 0.0
09 01:35 NW 9 10.00 Fair CLR 53.6 30.2 41% 29.63 0.0
09 01:15 NW 10 10.00 Fair CLR 55.4 28.4 36% 29.63 0.0
09 00:55 W 12 10.00 Fair CLR 53.6 30.2 41% 29.63 0.0
09 00:35 NW 9 10.00 Fair CLR 55.4 30.2 38% 29.62 0.0
09 00:15 NW 13 10.00 Fair CLR 57.2 28.4 33% 29.62 0.0
08 23:55 NW 14 10.00 Fair CLR 57.2 28.4 33% 29.62 0.0
08 23:35 NW 13 10.00 Fair CLR 59 28.4 31% 29.62 0.0
08 23:15 NW 13 G 20 10.00 A Few Clouds FEW100 59 30.2 34% 29.62 0.0
08 22:55 W 12 G 17 10.00 A Few Clouds FEW110 59 30.2 34% 29.62 0.0
08 22:35 W 12 10.00 A Few Clouds FEW110 59 30.2 34% 29.61 0.0
08 22:15 W 10 10.00 Fair CLR 59 30.2 34% 29.61 0.0
08 21:55 W 10 10.00 A Few Clouds FEW110 60.8 30.2 31% 29.6 0.0
08 21:35 W 10 10.00 Fair CLR 60.8 30.2 31% 29.6 0.0
08 21:15 W 9 10.00 Fair CLR 62.6 30.2 30% 29.6 0.0
08 20:55 W 10 10.00 Fair CLR 62.6 30.2 30% 29.6 0.0
08 20:35 W 10 10.00 A Few Clouds FEW100 64.4 30.2 28% 29.59 0.0
08 20:15 W 12 G 22 10.00 Mostly Cloudy SCT100 BKN120 66.2 28.4 24% 29.6 0.0
08 19:55 W 9 10.00 Partly Cloudy FEW100 SCT120 64.4 28.4 26% 29.59 0.0
08 19:35 W 10 G 16 10.00 A Few Clouds FEW110 66.2 28.4 24% 29.58 0.0
08 19:15 W 9 10.00 A Few Clouds FEW110 68 26.6 21% 29.59 0.0
08 18:55 W 10 G 16 10.00 Fair CLR 69.8 28.4 21% 29.59 0.0
08 18:35 NW 13 G 21 10.00 Fair CLR 69.8 28.4 21% 29.6 0.0
08 18:15 W 15 G 24 10.00 Fair CLR 69.8 28.4 21% 29.6 0.0
08 17:55 W 13 G 21 10.00 Fair CLR 69.8 28.4 21% 29.61 0.0
08 17:35 W 17 G 31 10.00 Fair CLR 69.8 28.4 21% 29.61 0.0
08 17:15 W 21 10.00 A Few Clouds and Breezy FEW120 69.8 26.6 20% 29.62 0.0
08 16:55 NW 15 G 23 10.00 Fair CLR 69.8 26.6 20% 29.62 0.0
08 16:35 W 22 G 33 10.00 Fair and Breezy CLR 69.8 26.6 20% 29.63 0.0
08 16:15 W 13 G 25 10.00 A Few Clouds FEW110 69.8 26.6 20% 29.64 0.0
08 15:55 W 12 G 28 10.00 A Few Clouds FEW110 69.8 26.6 20% 29.64 0.0
08 15:35 W 9 G 32 10.00 A Few Clouds FEW110 69.8 26.6 20% 29.65 0.0
08 15:15 W 16 G 23 10.00 Partly Cloudy SCT110 71.6 26.6 19% 29.65 0.0
08 14:55 W 21 G 26 10.00 A Few Clouds and Breezy FEW100 69.8 26.6 20% 29.66 0.0
08 14:35 W 20 G 25 10.00 A Few Clouds FEW100 69.8 26.6 20% 29.67 0.0
08 14:15 W 13 G 21 10.00 A Few Clouds FEW100 69.8 26.6 20% 29.68 0.0
08 13:55 SW 15 G 22 10.00 A Few Clouds FEW100 68 26.6 21% 29.69 0.0
08 13:35 W 18 G 25 10.00 Partly Cloudy SCT100 68 24.8 20% 29.69 0.0
08 13:15 W 16 G 25 10.00 A Few Clouds FEW100 68 24.8 20% 29.71 0.0
08 12:55 NW 8 G 23 10.00 Partly Cloudy SCT095 68 23 18% 29.72 0.0
08 12:35 W 12 G 24 10.00 NULL NULL 66.2 26.6 22% 29.73 0.0
08 12:15 NW 15 10.00 NULL NULL 64.4 24.8 22% 29.74 0.0
08 11:55 W 12 G 18 10.00 Partly Cloudy SCT110 64.4 26.6 24% 29.75 0.0
08 11:35 SW 15 G 21 10.00 NULL NULL 64.4 26.6 24% 29.75 0.0
08 11:15 SW 13 G 20 10.00 Fair CLR 64.4 26.6 24% 29.76 0.0
08 10:55 SW 12 G 26 10.00 Fair CLR 62.6 26.6 25% 29.77 0.0
08 10:35 SW 17 G 24 10.00 Fair CLR 60.8 26.6 27% 29.78 0.0
08 10:15 S 15 10.00 Fair CLR 60.8 26.6 27% 29.78 0.0
08 09:55 SW 14 G 21 10.00 Fair CLR 59 26.6 29% 29.79 0.0
08 09:35 SW 16 10.00 Fair CLR 57.2 26.6 31% 29.8 0.0
08 09:15 SW 13 10.00 Fair CLR 55.4 24.8 31% 29.8 0.0
08 08:55 S 10 10.00 Fair CLR 53.6 24.8 33% 29.8 0.0
08 08:35 SW 10 10.00 Fair CLR 51.8 23 32% 29.8 0.0
08 08:15 S 8 10.00 Fair CLR 50 24.8 37% 47 29.8 0.0
08 07:55 SW 7 10.00 Fair CLR 48.2 24.8 40% 46 29.8 0.0
08 07:35 SW 9 10.00 Fair CLR 46.4 23 40% 42 29.81 0.0
08 07:15 SW 8 10.00 Fair CLR 44.6 23 43% 41 29.8 0.0
08 06:55 S 12 10.00 Fair CLR 44.6 21.2 39% 39 29.8 0.0
08 06:35 S 12 10.00 Fair CLR 42.8 21.2 42% 37 29.8 0.0
08 06:15 S 10 10.00 Fair CLR 42.8 21.2 42% 38 29.8 0.0
08 05:55 S 10 10.00 Fair CLR 42.8 21.2 42% 38 29.8 0.0
08 05:35 S 10 10.00 Fair CLR 41 21.2 45% 35 29.8 0.0
08 05:15 S 10 10.00 Fair CLR 42.8 21.2 42% 38 29.8 0.0
08 04:55 S 9 10.00 Fair CLR 42.8 21.2 42% 38 29.81 0.0
08 04:35 S 8 10.00 Fair CLR 42.8 21.2 42% 39 29.81 0.0
08 04:15 S 8 10.00 Fair CLR 41 21.2 45% 36 29.81 0.0
08 03:55 S 8 10.00 Fair CLR 41 21.2 45% 36 29.81 0.0
08 03:35 S 8 10.00 Fair CLR 41 21.2 45% 36 29.82 0.0
08 03:15 S 8 10.00 Fair CLR 41 21.2 45% 36 29.82 0.0
08 02:55 S 8 10.00 Fair CLR 41 19.4 42% 36 29.82 0.0
08 02:35 S 9 10.00 Fair CLR 41 19.4 42% 36 29.83 0.0
08 02:15 S 8 10.00 Fair CLR 41 19.4 42% 36 29.83 0.0
08 01:55 S 7 10.00 Fair CLR 41 19.4 42% 37 29.83 0.0
08 01:35 S 7 10.00 Fair CLR 41 19.4 42% 37 29.83 0.0
08 01:15 SE 6 10.00 Fair CLR 42.8 17.6 36% 40 29.83 0.0
08 00:55 S 6 10.00 Fair CLR 42.8 17.6 36% 40 29.84 0.0
08 00:35 S 7 10.00 Fair CLR 42.8 19.4 39% 39 29.84 0.0
08 00:15 S 6 10.00 Fair CLR 44.6 19.4 37% 42 29.85 0.0
07 23:55 SE 6 10.00 Fair CLR 44.6 19.4 37% 42 29.85 0.0
07 23:35 SE 6 10.00 Fair CLR 44.6 19.4 37% 42 29.85 0.0
07 23:15 SE 6 10.00 Fair CLR 46.4 19.4 34% 44 29.85 0.0
07 22:55 SE 6 10.00 Fair CLR 44.6 19.4 37% 42 29.85 0.0
07 22:35 SE 6 10.00 Fair CLR 46.4 17.6 32% 44 29.85 0.0
07 22:15 E 7 10.00 Fair CLR 46.4 17.6 32% 43 29.84 0.0
07 21:55 E 6 9.00 Fair CLR 48.2 17.6 29% 46 29.84 0.0
07 21:35 NE 5 10.00 Fair CLR 48.2 17.6 29% 47 29.84 0.0
07 21:15 NE 5 10.00 Fair CLR 48.2 17.6 29% 47 29.83 0.0
07 20:55 NE 5 8.00 Fair CLR 48.2 17.6 29% 47 29.83 0.0
07 20:35 NE 5 10.00 Fair CLR 51.8 17.6 26% 29.82 0.0
07 20:15 N 6 10.00 Fair CLR 51.8 17.6 26% 29.82 0.0
07 19:55 N 7 10.00 Fair CLR 53.6 17.6 24% 29.82 0.0
07 19:35 NW 9 10.00 Fair CLR 55.4 17.6 23% 29.81 0.0
07 19:15 NW 9 10.00 Fair CLR 55.4 17.6 23% 29.81 0.0
07 18:55 NW 12 10.00 Fair CLR 57.2 15.8 20% 29.81 0.0
07 18:35 NW 13 G 20 10.00 Fair CLR 57.2 17.6 21% 29.81 0.0
07 18:15 NW 17 G 23 10.00 Fair CLR 57.2 15.8 20% 29.81 0.0
07 17:55 NW 14 G 21 10.00 Fair CLR 57.2 15.8 20% 29.82 0.0
07 17:35 NW 16 G 23 10.00 Fair CLR 57.2 15.8 20% 29.81 0.0
07 17:15 W 12 G 20 10.00 Fair CLR 57.2 15.8 20% 29.82 0.0
07 16:55 NW 16 G 23 10.00 Fair CLR 59 17.6 20% 29.81 0.0
Date Time (cdt) Wind (mph) Vis. (mi.) Weather Sky Cond. Air Dwpt Max. Min. Relative Humidity Wind Chill (°F) Heat Index (°F) altimeter (in) sea level (mb) 1 hr 3 hr 6 hr
6 hour
Temperature (ºF) Pressure Precipitation (in)